CW0498 Weather Reports


time (UTC)temp
F
wind
direction
speed
knots
gust
knots
rain 1hr
in
rain 24hr
in
rain mn
in
humidity
%
barometer
mb
20260906113045 70 0 0.0 0.0 0.00 0.00 0.00 96 1013.4
20260906111554 70 0 0.0 0.0 0.00 0.00 0.00 96 1013.3
20260906110055 70 0 0.0 0.0 0.00 0.00 0.00 96 1013.3
20260906104546 70 0 0.0 0.0 0.00 0.00 0.00 96 1013.4
20260906103044 70 0 0.0 0.0 0.00 0.00 0.00 96 1013.2
20260906101553 70 0 0.0 0.0 0.00 0.00 0.00 96 1013.2
20260906100049 70 0 0.0 0.0 0.00 0.00 0.00 96 1013.2
20260906094602 70 0 0.0 0.0 0.00 0.00 0.00 96 1013.7
20260906093107 70 0 0.0 0.0 0.00 0.00 0.00 96 1013.7
20260906091550 70 0 0.0 0.0 0.00 0.00 0.00 96 1013.5
20260906090114 70 0 0.0 0.0 0.00 0.00 0.00 96 1013.3
20260906084552 70 0 0.0 0.0 0.00 0.00 0.00 96 1013.2
20260906083053 70 0 0.0 0.0 0.00 0.00 0.00 96 1013.2
20260906081551 71 0 0.0 0.0 0.00 0.00 0.00 96 1013.1
20260906080055 71 0 0.0 0.0 0.00 0.00 0.00 96 1012.9
20260906074600 71 0 0.0 0.0 0.00 0.00 0.00 96 1013.1
20260906073057 71 0 0.0 0.0 0.00 0.00 0.00 96 1013.0
20260906071552 71 0 0.0 0.0 0.00 0.00 0.00 96 1013.0
20260906070045 71 0 0.0 0.0 0.00 0.00 0.00 96 1013.1
20260906064544 71 0 0.0 0.0 0.00 0.00 0.00 96 1013.1
20260906063048 71 0 0.0 0.0 0.00 0.00 0.00 96 1013.1
20260906061550 71 0 0.0 0.0 0.00 0.00 0.00 95 1013.2
20260906060054 71 0 0.0 0.0 0.00 0.00 0.00 96 1013.4
20260906054553 72 0 0.0 0.0 0.00 0.00 0.00 95 1013.4
20260906053100 72 0 0.0 0.0 0.00 0.00 0.00 95 1013.5
20260906051555 72 0 0.0 0.0 0.00 0.00 0.00 95 1013.6
20260906050052 72 0 0.0 0.0 0.00 0.00 0.00 95 1013.9
20260906044547 72 0 0.0 0.0 0.00 0.00 0.00 95 1013.8
20260906043058 72 0 0.0 0.0 0.00 0.00 0.00 94 1013.9
20260906041556 72 0 0.0 0.0 0.00 0.00 0.00 94 1013.8
20260906040050 73 0 0.0 0.0 0.00 0.00 0.00 93 1014.0
20260906034558 73 0 0.0 0.0 0.00 0.00 0.00 93 1014.1
20260906033046 73 0 0.0 0.0 0.00 0.00 0.00 92 1014.1
20260906031547 74 0 0.0 0.0 0.00 0.00 0.00 92 1014.2
20260906030050 74 0 0.0 0.0 0.00 0.00 0.00 91 1014.4
20260906024612 74 0 0.0 0.0 0.00 0.00 0.00 89 1014.5
20260906023059 75 0 0.0 0.0 0.00 0.00 0.00 89 1014.6
20260906021558 75 0 0.0 0.0 0.00 0.00 0.00 88 1014.6
20260906020055 75 0 0.0 0.0 0.00 0.00 0.00 87 1014.6
20260906014554 75 0 0.0 0.0 0.00 0.00 0.00 87 1014.4
20260906013047 76 0 0.0 0.0 0.00 0.00 0.00 86 1014.2
20260906011555 76 0 0.0 0.0 0.00 0.00 0.00 86 1014.2
20260906010128 76 0 0.0 0.0 0.00 0.00 0.00 86 1014.0
20260906004550 77 0 0.0 0.9 0.00 0.00 0.00 86 1013.2
20260906003047 77 0 0.0 0.0 0.00 0.00 0.00 85 1013.1
20260906001604 77 0 0.0 0.9 0.00 0.00 0.00 83 1012.8
20260906000056 78 0 0.0 0.0 0.00 0.00 0.00 82 1012.4
20260905234551 78 0 0.0 0.0 0.00 0.00 0.00 82 1011.8
20260905233056 79 0 0.0 0.0 0.00 0.00 0.00 80 1011.8
20260905231553 80 0 0.0 0.9 0.00 0.00 0.00 80 1012.7
20260905230052 83 131 0.9 4.3 0.00 0.00 0.00 77 1013.1
20260905224554 86 77 0.0 3.5 0.00 0.00 0.00 67 1013.2
20260905223054 89 20 0.9 3.5 0.00 0.00 0.00 67 1012.5
20260905221553 91 0 0.0 0.0 0.00 0.00 0.00 68 1011.9
20260905220047 91 0 0.0 1.7 0.00 0.00 0.00 65 1011.9
20260905214554 92 0 0.0 0.9 0.00 0.00 0.00 63 1011.7
20260905213105 93 0 0.0 0.0 0.00 0.00 0.00 66 1011.6
20260905211548 93 0 0.0 0.0 0.00 0.00 0.00 63 1011.7
20260905210057 95 0 0.0 0.9 0.00 0.00 0.00 55 1012.1
20260905204551 97 0 0.0 0.0 0.00 0.00 0.00 55 1012.3
20260905203055 96 0 0.0 0.9 0.00 0.00 0.00 61 1012.6
20260905201556 96 0 0.0 0.9 0.00 0.00 0.00 59 1012.7
20260905200059 96 0 0.0 0.9 0.00 0.00 0.00 55 1012.9
20260905194552 96 0 0.0 1.7 0.00 0.00 0.00 58 1012.9
20260905193048 96 0 0.0 0.9 0.00 0.00 0.00 61 1012.9
20260905191554 96 0 0.0 0.9 0.00 0.00 0.00 56 1013.1
20260905190100 94 318 0.0 3.5 0.00 0.00 0.00 61 1013.5
20260905184552 95 227 0.0 0.9 0.00 0.00 0.00 62 1013.7
20260905183106 94 310 0.0 3.5 0.00 0.00 0.00 63 1013.7
20260905181544 93 304 0.9 1.7 0.00 0.00 0.00 64 1014.0
20260905180054 93 263 0.0 3.5 0.00 0.00 0.00 67 1014.1
20260905174548 92 0 0.0 1.7 0.00 0.00 0.00 66 1014.2
20260905173053 91 322 0.9 2.6 0.00 0.00 0.00 68 1014.4
20260905171553 90 271 0.0 1.7 0.00 0.00 0.00 68 1014.6
20260905170057 90 0 0.0 4.3 0.00 0.00 0.00 70 1014.7
20260905164603 89 0 0.9 3.5 0.00 0.00 0.00 70 1014.9
20260905163053 88 305 0.9 3.5 0.00 0.00 0.00 72 1015.2
20260905161546 88 282 0.9 1.7 0.00 0.00 0.00 74 1015.4
20260905160055 86 0 0.0 0.9 0.00 0.00 0.00 76 1015.6
20260905154553 86 0 0.0 0.9 0.00 0.00 0.00 78 1015.7
20260905153052 85 0 0.0 0.9 0.00 0.00 0.00 79 1015.9
20260905151551 84 0 0.0 1.7 0.00 0.00 0.00 79 1015.9
20260905150059 83 252 0.0 0.9 0.00 0.00 0.00 81 1015.8
20260905144556 82 0 0.0 0.9 0.00 0.00 0.00 83 1015.8
20260905143052 81 0 0.0 0.0 0.00 0.00 0.00 85 1015.9
20260905141547 80 311 0.0 1.7 0.00 0.00 0.00 87 1015.9
20260905140109 78 0 0.0 0.9 0.00 0.00 0.00 91 1015.9
20260905134600 77 0 0.0 0.0 0.00 0.00 0.00 94 1015.9
20260905133045 75 0 0.0 0.0 0.00 0.00 0.00 96 1016.0
20260905131558 74 0 0.0 0.9 0.00 0.00 0.00 96 1016.1
20260905130050 74 0 0.0 0.0 0.00 0.00 0.00 96 1016.2
20260905124547 73 0 0.0 0.0 0.00 0.00 0.00 96 1016.2
20260905123103 72 0 0.0 0.0 0.00 0.00 0.00 96 1016.1
20260905121545 72 0 0.0 0.0 0.00 0.00 0.00 96 1015.9
20260905120047 72 0 0.0 0.0 0.00 0.00 0.00 96 1015.8
20260905114556 71 0 0.0 0.0 0.00 0.00 0.00 96 1015.5